(°C)
10°
10°
10°
(°C)
ΔΒΔ
ΒΔ
ΒΔ
ΒΔ
ΒΔ
ΒΔ
ΒΔ
(χλμ / ω)
21-30
21-30
20-29
19-28
17-23
13-22
12-19
(χιλιοστά)
0
0
0
0
0
0
0
(%)
0
0
0
0
0
0
0

Ανύψωση ήλιου

/ 35.3°
sun-icon
UV 1
06:15
18:51
Αύξων αμφίκυρτος (φάση σελήνης) (149°)
18:32
02:16

METAR για 53.5°Β 50.15°Α (UWWW)

Χρόνος Συνθήκες Θερμοκρασία/
Σημείο δρόσου
Άνεμος Ορατότητα Καιρός Νέφη Πίεση Αλλαγή Ανεπεξέργαστο
VFR 10°C / 0°C 320º 16kt >10km - Scattered Clouds 3300ft 1018 No Significant change UWWW 180930Z 32008MPS 9999 SCT033 10/00 Q1018 R33/CLRD60 NOSIG RMK QFE753/1004
VFR 10°C / 0°C 320º variable 270º to 340º 14kt >10km - Scattered Clouds 3300ft 1018 No Significant change UWWW 180900Z 32007MPS 270V340 9999 SCT033 10/M00 Q1018 R33/CLRD60 NOSIG RMK QFE753/1004
VFR 10°C / 0°C 330º 14kt >10km - Scattered Clouds 3300ft 1018 No Significant change UWWW 180830Z 33007MPS 9999 SCT033 10/00 Q1018 R33/CLRD60 NOSIG RMK QFE753/1004
VFR 10°C / 0°C 320º 14kt >10km - Scattered Clouds 3300ft 1018 No Significant change UWWW 180800Z 32007MPS 9999 SCT033 10/00 Q1018 R33/CLRD60 NOSIG RMK QFE753/1004
VFR 10°C / 0°C 320º 14kt >10km - Scattered Clouds 3300ft 1018 No Significant change UWWW 180730Z 32007MPS 9999 SCT033 10/00 Q1018 R33/CLRD60 NOSIG RMK QFE752/1003
VFR 10°C / 1°C 320º 14kt >10km - Scattered Clouds 3300ft 1017 No Significant change UWWW 180700Z 32007MPS 9999 SCT033 10/01 Q1017 R33/CLRD60 NOSIG RMK QFE752/1003
VFR 10°C / 0°C 330º 16kt >10km - Scattered Clouds 3300ft 1017 No Significant change UWWW 180630Z 33008MPS 9999 SCT033 10/00 Q1017 R33/CLRD60 NOSIG RMK QFE752/1003
VFR 9°C / 1°C 320º 14kt >10km - Scattered Clouds 2600ft 1017 No Significant change UWWW 180600Z 32007MPS 9999 SCT026 09/01 Q1017 R33/CLRD60 NOSIG RMK QFE752/1003
VFR 9°C / 2°C 330º 14kt >10km - Scattered Clouds 2600ft 1017 No Significant change UWWW 180530Z 33007MPS 9999 SCT026 09/02 Q1017 R33/CLRD60 NOSIG RMK QFE752/1003
VFR 8°C / 2°C 330º 12kt >10km - Scattered Clouds 2600ft 1017 No Significant change. Runway 33: Damp, 51-100% contamination with <1mm, friction coefficient 0.55. UWWW 180500Z 33006MPS 9999 SCT026 08/02 Q1017 R33/190055 NOSIG RMK QFE752/1003
VFR 8°C / 3°C 310º 10kt >10km - Few Clouds 3300ft 1017 No Significant change. Runway 33: Damp, 51-100% contamination with <1mm, friction coefficient 0.55. UWWW 180430Z 31005MPS 9999 FEW033 08/03 Q1017 R33/190055 NOSIG RMK QFE752/1002
VFR 7°C / 3°C 300º variable 270º to 340º 8kt >10km - Few Clouds 3300ft 1016 No Significant change. Runway 33: Damp, 51-100% contamination with <1mm, friction coefficient 0.55. UWWW 180400Z 30004MPS 270V340 9999 FEW033 07/03 Q1016 R33/190055 NOSIG RMK QFE751/1002
VFR 7°C / 2°C 310º 8kt >10km - Few Clouds 3300ft 1016 No Significant change. Runway 33: Damp, 51-100% contamination with <1mm, friction coefficient 0.55. UWWW 180330Z 31004MPS 9999 FEW033 07/02 Q1016 R33/190055 NOSIG RMK QFE751/1002
VFR 6°C / 2°C 300º 8kt >10km - Few Clouds 3300ft 1016 No Significant change. Runway 33: Damp, 51-100% contamination with <1mm, friction coefficient 0.55. UWWW 180300Z 30004MPS 9999 FEW033 06/02 Q1016 R33/190055 NOSIG RMK QFE751/1002
VFR 6°C / 2°C 300º 8kt >10km - Scattered Clouds 3300ft 1016 No Significant change. Runway 33: Damp, 51-100% contamination with <1mm, friction coefficient 0.55. UWWW 180230Z 30004MPS 9999 SCT033 06/02 Q1016 R33/190055 NOSIG RMK QFE751/1001
VFR 6°C / 2°C 300º 8kt >10km - Scattered Clouds 3300ft 1015 No Significant change. Runway 33: Damp, 51-100% contamination with <1mm, friction coefficient 0.55. UWWW 180200Z 30004MPS 9999 SCT033 06/02 Q1015 R33/190055 NOSIG RMK QFE751/1001
VFR 6°C / 2°C 290º variable 260º to 320º 6kt >10km - Scattered Clouds 3300ft 1015 No Significant change. Runway 33: Damp, 51-100% contamination with <1mm, friction coefficient 0.55. UWWW 180130Z 29003MPS 260V320 9999 SCT033 06/02 Q1015 R33/190055 NOSIG RMK QFE751/1001
VFR 6°C / 2°C 280º 4kt >10km - Scattered Clouds 3300ft 1015 No Significant change. Runway 33: Damp, 51-100% contamination with <1mm, friction coefficient 0.55. UWWW 180100Z 28002MPS 9999 SCT033 06/02 Q1015 R33/190055 NOSIG RMK QFE751/1001
VFR 6°C / 2°C 290º variable 230º to 320º 6kt >10km - Scattered Clouds 3300ft 1015 No Significant change. Runway 33: Damp, 51-100% contamination with <1mm, friction coefficient 0.55. UWWW 180030Z 29003MPS 230V320 9999 SCT033 06/02 Q1015 R33/190055 NOSIG RMK QFE751/1001
VFR 6°C / 2°C 310º 6kt >10km - Scattered Clouds 3300ft 1015 No Significant change. Runway 33: Damp, 51-100% contamination with <1mm, friction coefficient 0.55. UWWW 180000Z 31003MPS 9999 SCT033 06/02 Q1015 R33/190055 NOSIG RMK QFE751/1001
VFR 6°C / 2°C 300º 6kt >10km - Scattered Clouds 3300ft 1015 No Significant change. Runway 33: Damp, 51-100% contamination with <1mm, friction coefficient 0.55. UWWW 172330Z 30003MPS 9999 SCT033 06/02 Q1015 R33/190055 NOSIG RMK QFE751/1001
VFR 6°C / 3°C 300º 8kt >10km - Scattered Clouds 3300ft 1015 No Significant change. Runway 33: Damp, 51-100% contamination with <1mm, friction coefficient 0.55. UWWW 172300Z 30004MPS 9999 SCT033 06/03 Q1015 R33/190055 NOSIG RMK QFE751/1001
VFR 6°C / 3°C 290º 6kt >10km - Scattered Clouds 3300ft 1015 No Significant change. Runway 33: Damp, 51-100% contamination with <1mm, friction coefficient 0.55. UWWW 172230Z 29003MPS 9999 SCT033 06/03 Q1015 R33/190055 NOSIG RMK QFE751/1001
VFR 6°C / 3°C 280º variable 240º to 320º 6kt >10km - Scattered Clouds 3300ft 1015 No Significant change. Runway 33: Damp, 51-100% contamination with <1mm, friction coefficient 0.55. UWWW 172200Z 28003MPS 240V320 9999 SCT033 06/03 Q1015 R33/190055 NOSIG RMK QFE750/1001

VFR

10°C / 0°C

[Περισσότερο]
Άνεμος 320º 16kt
Ορατότητα >10km
Καιρός -
Νέφη Scattered Clouds 3300ft
Πίεση 1018
Αλλαγή No Significant change
Ανεπεξέργαστο UWWW 180930Z 32008MPS 9999 SCT033 10/00 Q1018 R33/CLRD60 NOSIG RMK QFE753/1004

VFR

10°C / 0°C

[Περισσότερο]
Άνεμος 320º variable 270º to 340º 14kt
Ορατότητα >10km
Καιρός -
Νέφη Scattered Clouds 3300ft
Πίεση 1018
Αλλαγή No Significant change
Ανεπεξέργαστο UWWW 180900Z 32007MPS 270V340 9999 SCT033 10/M00 Q1018 R33/CLRD60 NOSIG RMK QFE753/1004

VFR

10°C / 0°C

[Περισσότερο]
Άνεμος 330º 14kt
Ορατότητα >10km
Καιρός -
Νέφη Scattered Clouds 3300ft
Πίεση 1018
Αλλαγή No Significant change
Ανεπεξέργαστο UWWW 180830Z 33007MPS 9999 SCT033 10/00 Q1018 R33/CLRD60 NOSIG RMK QFE753/1004

VFR

10°C / 0°C

[Περισσότερο]
Άνεμος 320º 14kt
Ορατότητα >10km
Καιρός -
Νέφη Scattered Clouds 3300ft
Πίεση 1018
Αλλαγή No Significant change
Ανεπεξέργαστο UWWW 180800Z 32007MPS 9999 SCT033 10/00 Q1018 R33/CLRD60 NOSIG RMK QFE753/1004

VFR

10°C / 0°C

[Περισσότερο]
Άνεμος 320º 14kt
Ορατότητα >10km
Καιρός -
Νέφη Scattered Clouds 3300ft
Πίεση 1018
Αλλαγή No Significant change
Ανεπεξέργαστο UWWW 180730Z 32007MPS 9999 SCT033 10/00 Q1018 R33/CLRD60 NOSIG RMK QFE752/1003

VFR

10°C / 1°C

[Περισσότερο]
Άνεμος 320º 14kt
Ορατότητα >10km
Καιρός -
Νέφη Scattered Clouds 3300ft
Πίεση 1017
Αλλαγή No Significant change
Ανεπεξέργαστο UWWW 180700Z 32007MPS 9999 SCT033 10/01 Q1017 R33/CLRD60 NOSIG RMK QFE752/1003

VFR

10°C / 0°C

[Περισσότερο]
Άνεμος 330º 16kt
Ορατότητα >10km
Καιρός -
Νέφη Scattered Clouds 3300ft
Πίεση 1017
Αλλαγή No Significant change
Ανεπεξέργαστο UWWW 180630Z 33008MPS 9999 SCT033 10/00 Q1017 R33/CLRD60 NOSIG RMK QFE752/1003

VFR

9°C / 1°C

[Περισσότερο]
Άνεμος 320º 14kt
Ορατότητα >10km
Καιρός -
Νέφη Scattered Clouds 2600ft
Πίεση 1017
Αλλαγή No Significant change
Ανεπεξέργαστο UWWW 180600Z 32007MPS 9999 SCT026 09/01 Q1017 R33/CLRD60 NOSIG RMK QFE752/1003

VFR

9°C / 2°C

[Περισσότερο]
Άνεμος 330º 14kt
Ορατότητα >10km
Καιρός -
Νέφη Scattered Clouds 2600ft
Πίεση 1017
Αλλαγή No Significant change
Ανεπεξέργαστο UWWW 180530Z 33007MPS 9999 SCT026 09/02 Q1017 R33/CLRD60 NOSIG RMK QFE752/1003

VFR

8°C / 2°C

[Περισσότερο]
Άνεμος 330º 12kt
Ορατότητα >10km
Καιρός -
Νέφη Scattered Clouds 2600ft
Πίεση 1017
Αλλαγή No Significant change. Runway 33: Damp, 51-100% contamination with <1mm, friction coefficient 0.55.
Ανεπεξέργαστο UWWW 180500Z 33006MPS 9999 SCT026 08/02 Q1017 R33/190055 NOSIG RMK QFE752/1003

VFR

8°C / 3°C

[Περισσότερο]
Άνεμος 310º 10kt
Ορατότητα >10km
Καιρός -
Νέφη Few Clouds 3300ft
Πίεση 1017
Αλλαγή No Significant change. Runway 33: Damp, 51-100% contamination with <1mm, friction coefficient 0.55.
Ανεπεξέργαστο UWWW 180430Z 31005MPS 9999 FEW033 08/03 Q1017 R33/190055 NOSIG RMK QFE752/1002

VFR

7°C / 3°C

[Περισσότερο]
Άνεμος 300º variable 270º to 340º 8kt
Ορατότητα >10km
Καιρός -
Νέφη Few Clouds 3300ft
Πίεση 1016
Αλλαγή No Significant change. Runway 33: Damp, 51-100% contamination with <1mm, friction coefficient 0.55.
Ανεπεξέργαστο UWWW 180400Z 30004MPS 270V340 9999 FEW033 07/03 Q1016 R33/190055 NOSIG RMK QFE751/1002

VFR

7°C / 2°C

[Περισσότερο]
Άνεμος 310º 8kt
Ορατότητα >10km
Καιρός -
Νέφη Few Clouds 3300ft
Πίεση 1016
Αλλαγή No Significant change. Runway 33: Damp, 51-100% contamination with <1mm, friction coefficient 0.55.
Ανεπεξέργαστο UWWW 180330Z 31004MPS 9999 FEW033 07/02 Q1016 R33/190055 NOSIG RMK QFE751/1002

VFR

6°C / 2°C

[Περισσότερο]
Άνεμος 300º 8kt
Ορατότητα >10km
Καιρός -
Νέφη Few Clouds 3300ft
Πίεση 1016
Αλλαγή No Significant change. Runway 33: Damp, 51-100% contamination with <1mm, friction coefficient 0.55.
Ανεπεξέργαστο UWWW 180300Z 30004MPS 9999 FEW033 06/02 Q1016 R33/190055 NOSIG RMK QFE751/1002

VFR

6°C / 2°C

[Περισσότερο]
Άνεμος 300º 8kt
Ορατότητα >10km
Καιρός -
Νέφη Scattered Clouds 3300ft
Πίεση 1016
Αλλαγή No Significant change. Runway 33: Damp, 51-100% contamination with <1mm, friction coefficient 0.55.
Ανεπεξέργαστο UWWW 180230Z 30004MPS 9999 SCT033 06/02 Q1016 R33/190055 NOSIG RMK QFE751/1001

VFR

6°C / 2°C

[Περισσότερο]
Άνεμος 300º 8kt
Ορατότητα >10km
Καιρός -
Νέφη Scattered Clouds 3300ft
Πίεση 1015
Αλλαγή No Significant change. Runway 33: Damp, 51-100% contamination with <1mm, friction coefficient 0.55.
Ανεπεξέργαστο UWWW 180200Z 30004MPS 9999 SCT033 06/02 Q1015 R33/190055 NOSIG RMK QFE751/1001

VFR

6°C / 2°C

[Περισσότερο]
Άνεμος 290º variable 260º to 320º 6kt
Ορατότητα >10km
Καιρός -
Νέφη Scattered Clouds 3300ft
Πίεση 1015
Αλλαγή No Significant change. Runway 33: Damp, 51-100% contamination with <1mm, friction coefficient 0.55.
Ανεπεξέργαστο UWWW 180130Z 29003MPS 260V320 9999 SCT033 06/02 Q1015 R33/190055 NOSIG RMK QFE751/1001

VFR

6°C / 2°C

[Περισσότερο]
Άνεμος 280º 4kt
Ορατότητα >10km
Καιρός -
Νέφη Scattered Clouds 3300ft
Πίεση 1015
Αλλαγή No Significant change. Runway 33: Damp, 51-100% contamination with <1mm, friction coefficient 0.55.
Ανεπεξέργαστο UWWW 180100Z 28002MPS 9999 SCT033 06/02 Q1015 R33/190055 NOSIG RMK QFE751/1001

VFR

6°C / 2°C

[Περισσότερο]
Άνεμος 290º variable 230º to 320º 6kt
Ορατότητα >10km
Καιρός -
Νέφη Scattered Clouds 3300ft
Πίεση 1015
Αλλαγή No Significant change. Runway 33: Damp, 51-100% contamination with <1mm, friction coefficient 0.55.
Ανεπεξέργαστο UWWW 180030Z 29003MPS 230V320 9999 SCT033 06/02 Q1015 R33/190055 NOSIG RMK QFE751/1001

VFR

6°C / 2°C

[Περισσότερο]
Άνεμος 310º 6kt
Ορατότητα >10km
Καιρός -
Νέφη Scattered Clouds 3300ft
Πίεση 1015
Αλλαγή No Significant change. Runway 33: Damp, 51-100% contamination with <1mm, friction coefficient 0.55.
Ανεπεξέργαστο UWWW 180000Z 31003MPS 9999 SCT033 06/02 Q1015 R33/190055 NOSIG RMK QFE751/1001

VFR

6°C / 2°C

[Περισσότερο]
Άνεμος 300º 6kt
Ορατότητα >10km
Καιρός -
Νέφη Scattered Clouds 3300ft
Πίεση 1015
Αλλαγή No Significant change. Runway 33: Damp, 51-100% contamination with <1mm, friction coefficient 0.55.
Ανεπεξέργαστο UWWW 172330Z 30003MPS 9999 SCT033 06/02 Q1015 R33/190055 NOSIG RMK QFE751/1001

VFR

6°C / 3°C

[Περισσότερο]
Άνεμος 300º 8kt
Ορατότητα >10km
Καιρός -
Νέφη Scattered Clouds 3300ft
Πίεση 1015
Αλλαγή No Significant change. Runway 33: Damp, 51-100% contamination with <1mm, friction coefficient 0.55.
Ανεπεξέργαστο UWWW 172300Z 30004MPS 9999 SCT033 06/03 Q1015 R33/190055 NOSIG RMK QFE751/1001

VFR

6°C / 3°C

[Περισσότερο]
Άνεμος 290º 6kt
Ορατότητα >10km
Καιρός -
Νέφη Scattered Clouds 3300ft
Πίεση 1015
Αλλαγή No Significant change. Runway 33: Damp, 51-100% contamination with <1mm, friction coefficient 0.55.
Ανεπεξέργαστο UWWW 172230Z 29003MPS 9999 SCT033 06/03 Q1015 R33/190055 NOSIG RMK QFE751/1001

VFR

6°C / 3°C

[Περισσότερο]
Άνεμος 280º variable 240º to 320º 6kt
Ορατότητα >10km
Καιρός -
Νέφη Scattered Clouds 3300ft
Πίεση 1015
Αλλαγή No Significant change. Runway 33: Damp, 51-100% contamination with <1mm, friction coefficient 0.55.
Ανεπεξέργαστο UWWW 172200Z 28003MPS 240V320 9999 SCT033 06/03 Q1015 R33/190055 NOSIG RMK QFE750/1001

TAF για 53.5°Β 50.15°Α (UWWW)

From till


Maximum Temperature 12ºC on . Minimum Temperature 2ºC on .
From till Wind 330º 16kt. Gust 29kt. Visibility 10km or more. Broken Clouds 1600ft.
Becoming from till Wind 20º 6kt. Visibility 10km or more. Broken Clouds 1600ft.

Ανεπεξέργαστο: TAF UWWW 180751Z 1809/1909 33008G15MPS 9999 BKN016 TX12/1811Z TN02/1901Z BECMG 1818/1820 02003MPS

Τρέχουσες εικόνες δορυφόρου και βροχής για 53.5°Β 50.15°Α

Η ένδειξη τοποθεσίας τοποθετείται στο 53.5°Β 50.15°Α. [Περισσότερο]

Οι δορυφορικές εικόνες σε πραγματικό χρόνο συνδυάζουν ορατό φως κατά τη διάρκεια της ημέρας με υπέρυθρη ακτινοβολία κατά τη διάρκεια της νύχτας. Κατά τη διάρκεια της νύχτας, η εικόνα δεν είναι σκοτεινή μιας και η υπέρυθρη ακτινοβολία μπορεί να εντοπίσει τις διαφορές στη θερμοκρασία. Δυστυχώς, είναι δύσκολο να ξεχωρίσουν οι χαμηλές νεφώσεις και η ομίχλη από τις θερμοκρασίες εδάφους και έτσι μπορεί να είναι σχετικά αόρατα κατά τη διάρκεια της νύχτας. Οι εικόνες από τον δορυφόρο Meteosat για την Ευρώπη ενημερώνονται σε πραγματικό χρόνο κάθε 5 λεπτά. Οι εικόνες από τους δορυφόρους GOES-16/GOES-17 (Βόρεια & Λατινική Αμερική) και Himawari (Ασία) ενημερώνονται κάθε 10 λεπτά.

Πνευματική ιδιοκτησία 2021 EUMETSAT / meteoblue. / Πνευματική ιδιοκτησία 2021 meteoblue

Ραντάρ και πρόγνωση υετού μικρής δειάρκειας για 53.5°Β 50.15°Α

Ψιλοβρέχει
Φως
Μέτρια
Βαριά
Πολύ βαρύ
Χαλάζι

Ο δείκτης θέσης τοποθετείται στο 53.5°Β 50.15°Α. Αυτή η κινούμενη εικόνα δείχνει την ραντάρ βροχόπτωσης για την τελευταία ώρα, καθώς και 1πρόγνωση h. Το ψιλόβροχο ή το ελαφρύ χιόνι μπορεί να είναι αόρατο για το ραντάρ. Η ένταση της βροχόπτωσης είναι χρωματικά κωδικοποιημένη και κυμαίνεται από γαλάζιο έως πορτοκαλί.